User: anonymous
Location: Waning Moon II Observatory
(30.3730°N, 89.7620°W)
Time: 07:27:23
(UTC-05:00)
Language:

Meteor 1-21 - Orbit

View from above orbital plane
View from above orbital plane
View from above satellite
View from above satellite

Ground track
Ground track

The orbit data is extracted from the following two-line orbital elements,

1 07714U 75023A   14274.56084390  .00000232  00000-0  12870-3 0  9054
2 07714 081.2074 075.1948 0033981 160.7077 265.1038 14.07817683345944
Epoch (UTC): 01 October 2014 13:27:36
Eccentricity: 0.0033981
inclination: 81.2074°
perigee height: 842 km
apogee height: 891 km
right ascension of ascending node: 75.1948°
argument of perigee: 160.7077°
revolutions per day: 14.07817683
mean anomaly at epoch: 265.1038°
orbit number at epoch: 34594

The dashed part of the orbit path shows where the satellite is in the earth's shadow,  

DLR